WEATHER DATA

YESTERDAY
Time Temp. Dewp. Hum. Wind dir Wind speed Wind gust Bar. 1h Prec. 24h Prec.
00:06 14.3 6.2 58 232 1.7 3.1 1011.4 0.0000 0.0000
00:17 14.2 6.3 59 231 1.9 5 1011.4 0.0000 0.0000
00:27 14.1 6.5 60 247 1.9 4.2 1011.4 0.0000 0.0000
00:37 14 6.4 60 219 1.7 2.5 1011.5 0.0000 0.0000
00:47 13.9 6.5 61 237 1.7 3.3 1011.5 0.0000 0.0000
00:57 13.6 6.7 63 340 0.6 1.1 1011.5 0.0000 0.0000
01:07 13.3 6.6 64 109 0.8 2.2 1011.4 0.0000 0.0000
01:17 13.1 6.7 65 135 0.6 1.4 1011.5 0.0000 0.0000
01:27 12.8 6.8 67 191 0.6 1.7 1011.5 0.0000 0.0000
01:37 12.7 6.7 67 254 0.6 1.7 1011.5 0.0000 0.0000
01:47 12.5 6.8 68 303 0.3 1.4 1011.5 0.0000 0.0000
01:58 12.5 6.5 67 239 0.8 1.4 1011.6 0.0000 0.0000
02:08 12.5 6.3 66 230 1.7 2.8 1011.5 0.0000 0.0000
02:18 12.5 6.3 66 242 1.9 4.2 1011.4 0.0000 0.0000
02:27 12.5 6.3 66 243 1.4 2.2 1011.4 0.0000 0.0000
02:38 12.4 6.2 66 242 1.7 2.5 1011.4 0.0000 0.0000
02:48 12.5 6.3 66 238 2.2 3.3 1011.4 0.0000 0.0000
02:58 12.4 6.2 66 232 1.7 2.8 1011.2 0.0000 0.0000
03:08 12.3 6.1 66 246 1.9 3.1 1011.2 0.0000 0.0000
03:18 12.1 6.2 67 232 2.2 3.9 1011.2 0.0000 0.0000
03:28 12.2 6 66 243 3.1 6.1 1011.2 0.0000 0.0000
03:38 12.2 6.3 67 232 2.8 5.6 1011.2 0.0000 0.0000
03:49 11.9 6.2 68 235 2.2 3.9 1011.1 0.0000 0.0000
03:58 11.9 6.2 68 229 2.5 4.2 1011.1 0.0000 0.0000
04:08 11.9 6.2 68 238 2.5 4.7 1011.2 0.0000 0.0000
04:19 11.7 6.2 69 229 3.1 5.8 1011 0.0000 0.0000
04:29 11.5 6 69 228 3.6 5.3 1011 0.0000 0.0000
04:39 11.4 5.9 69 224 3.9 6.7 1010.9 0.0000 0.0000
04:48 11.3 6 70 226 4.2 6.9 1010.9 0.0000 0.0000
04:59 11 6 71 239 3.1 5 1011 0.0000 0.0000
05:09 10.9 5.9 71 240 2.5 4.4 1011.1 0.0000 0.0000
05:19 11 6 71 223 2.8 5.8 1011.1 0.0000 0.0000
05:29 10.9 5.9 71 235 3.3 5.3 1011.1 0.0000 0.0000
05:39 10.8 6 72 225 4.2 6.9 1011.1 0.0000 0.0000
05:49 10.7 5.9 72 224 3.9 6.7 1011.1 0.0000 0.0000
05:59 10.7 5.9 72 223 4.2 6.7 1011 0.0000 0.0000
06:10 10.7 5.9 72 228 3.6 5 1011 0.0000 0.0000
06:19 10.7 5.9 72 229 2.5 4.7 1011 0.0000 0.0000
06:29 10.8 5.8 71 240 3.1 5.8 1011 0.0000 0.0000
06:40 11.1 5.8 70 239 3.9 6.9 1011.1 0.0000 0.0000
06:50 11.2 5.9 70 232 4.7 7.5 1011.1 0.0000 0.0000
07:00 11.1 5.8 70 231 5 9.2 1011.2 0.0000 0.0000
07:09 10.9 5.9 71 239 4.7 8.9 1011.4 0.0000 0.0000
07:20 10.8 5.8 71 222 3.6 7.5 1011.5 0.0000 0.0000
07:30 10.7 5.9 72 231 3.9 6.9 1011.7 0.0000 0.0000
07:40 10.5 5.9 73 232 3.6 8.3 1011.8 0.0000 0.0000
07:50 10.2 5.8 74 225 3.9 6.1 1011.8 0.0000 0.0000
08:00 10.1 5.7 74 227 3.9 7.5 1011.8 0.0000 0.0000
08:10 10.1 5.7 74 222 3.3 4.7 1011.7 0.0000 0.0000
08:20 10.3 5.9 74 231 3.3 5.8 1011.6 0.0000 0.0000
08:31 10.5 5.9 73 230 2.8 6.1 1011.7 0.0000 0.0000
08:41 10.6 6 73 228 3.3 5.3 1012 0.0000 0.0000
08:50 10.7 6.1 73 226 2.8 4.4 1012.2 0.0000 0.0000
09:00 11 6.2 72 228 3.3 5.3 1012.1 0.0000 0.0000
09:11 11.1 6.2 72 235 3.3 7.8 1012.1 0.0000 0.0000
09:21 11.3 6.4 72 220 3.6 5.3 1012.2 0.0000 0.0000
09:31 11.6 6.5 71 225 4.4 7.2 1012 0.0000 0.0000
09:41 11.8 6.5 70 221 4.4 10.3 1012.1 0.0000 0.0000
09:51 11.7 6.4 70 226 3.9 5.8 1012.1 0.0000 0.0000
10:01 11.5 6.4 71 228 3.3 6.7 1012.3 0.0000 0.0000
10:11 11.5 6.6 72 218 3.6 6.1 1012.3 0.0000 0.0000
10:21 11.8 6.7 71 221 3.3 6.9 1012.2 0.0000 0.0000
10:31 12.1 6.8 70 223 3.3 6.1 1012.2 0.0000 0.0000
10:41 12.5 7 69 223 2.5 5.6 1012.3 0.0000 0.0000
10:52 12.4 6.9 69 245 3.1 6.7 1012.4 0.0000 0.0000
11:02 12.5 7 69 234 3.1 6.4 1012.3 0.0000 0.0000
11:11 12.5 7 69 225 3.6 6.4 1012.5 0.0000 0.0000
11:21 12.8 7 68 233 3.3 5.8 1012.6 0.0000 0.0000
11:32 13.1 7.1 67 225 3.6 6.9 1012.6 0.0000 0.0000
11:42 13.1 7.3 68 236 3.9 6.1 1012.6 0.0000 0.0000
11:52 13.5 7.5 67 227 2.8 7.2 1012.6 0.0000 0.0000
12:02 13.8 7.6 66 227 3.3 6.4 1012.5 0.0000 0.0000
12:12 13.8 7.8 67 226 3.1 5.8 1012.5 0.0000 0.0000
12:22 14.3 8 66 227 2.8 4.7 1012.4 0.0000 0.0000
12:32 14.6 8.3 66 232 2.8 4.2 1012.3 0.0000 0.0000
12:42 15.1 8.3 64 222 3.1 6.1 1012.2 0.0000 0.0000
12:52 15.1 8.1 63 241 2.8 5 1012.2 0.0000 0.0000
13:02 15.2 8.4 64 213 3.1 6.4 1012.2 0.0000 0.0000
13:13 15.3 8.5 64 244 3.1 5.6 1012 0.0000 0.0000
13:23 15.6 8.6 63 234 3.1 6.1 1011.7 0.0000 0.0000
13:32 15.9 8.6 62 239 2.5 4.7 1011.8 0.0000 0.0000
13:42 16 8.7 62 228 3.3 6.4 1011.8 0.0000 0.0000
13:53 16.2 8.9 62 238 3.3 7.2 1011.7 0.0000 0.0000
14:03 16.4 8.6 60 230 3.1 6.1 1011.6 0.0000 0.0000
14:13 16.3 8.5 60 235 2.5 4.7 1011.5 0.0000 0.0000
14:23 16.4 8.4 59 222 3.6 6.9 1011.4 0.0000 0.0000
14:33 16.6 8.6 59 228 3.9 5.8 1011.2 0.0000 0.0000
14:43 16.7 8.7 59 222 3.6 7.2 1011.1 0.0000 0.0000
14:53 16.9 8.6 58 236 3.6 5.8 1011.1 0.0000 0.0000
15:03 16.9 8.6 58 235 3.3 5 1011.2 0.0000 0.0000
15:13 17.7 9.1 57 246 2.5 6.1 1010.9 0.0000 0.0000
15:23 17.6 8.7 56 236 3.3 6.1 1011 0.0000 0.0000
15:34 17.5 8.9 57 237 3.9 7.5 1011 0.0000 0.0000
15:44 17.6 9 57 226 3.3 5.8 1010.9 0.0000 0.0000
15:53 17.6 9 57 224 2.5 5.8 1010.8 0.0000 0.0000
16:03 17.6 9 57 227 3.3 7.2 1010.8 0.0000 0.0000
16:14 17.4 8.8 57 230 2.8 5.6 1010.7 0.0000 0.0000
16:24 17.6 9 57 235 2.5 4.2 1010.7 0.0000 0.0000
16:34 17.6 9 57 233 2.8 6.9 1010.5 0.0000 0.0000
16:44 17.8 8.9 56 239 3.1 5.8 1010.3 0.0000 0.0000
16:54 17.8 8.9 56 226 3.9 6.9 1010.2 0.0000 0.0000
17:04 17.7 8.8 56 233 3.1 5.3 1010.2 0.0000 0.0000
17:14 17.8 8.9 56 234 3.9 6.7 1010.2 0.0000 0.0000
17:24 17.7 8.8 56 220 3.3 5 1010.1 0.0000 0.0000
17:34 17.7 8.8 56 221 2.2 4.4 1010.1 0.0000 0.0000
17:44 17.7 9.1 57 234 2.5 5.3 1010 0.0000 0.0000
17:55 17.4 8.5 56 233 3.9 7.8 1010 0.0000 0.0000
18:15 17.3 9 58 235 3.6 6.7 1010 0.0000 0.0000
18:24 17.3 9 58 229 3.6 7.5 1009.9 0.0000 0.0000
18:45 17.1 8.8 58 238 3.3 5.8 1009.9 0.0000 0.0000
18:55 16.9 8.8 59 228 3.3 5 1009.9 0.0000 0.0000
19:05 16.8 8.8 59 221 3.1 5.6 1010 0.0000 0.0000
19:15 16.8 8.8 59 231 2.8 4.4 1010 0.0000 0.0000
19:25 16.7 8.7 59 237 2.5 4.2 1010 0.0000 0.0000
19:46 16.7 8.7 59 236 2.5 5 1010 0.0000 0.0000
19:55 16.6 8.6 59 240 2.8 4.4 1010 0.0000 0.0000
20:05 16.4 8.6 60 233 1.9 3.3 1010.3 0.0000 0.0000
20:16 16.3 8.5 60 236 2.5 3.9 1010.5 0.0000 0.0000
20:26 16.1 8.6 61 228 2.5 3.9 1010.6 0.0000 0.0000
20:35 15.9 8.6 62 233 2.8 3.9 1010.7 0.0000 0.0000
20:45 15.8 8.8 63 231 3.1 5 1011 0.0000 0.0000
20:56 15.7 8.7 63 227 2.8 5.6 1011.1 0.0000 0.0000
21:06 15.6 8.6 63 240 3.3 4.7 1011.3 0.0000 0.0000
21:16 15.5 8.7 64 223 2.5 4.4 1011.5 0.0000 0.0000
21:26 15.4 8.6 64 234 2.5 5 1011.8 0.0000 0.0000
21:36 15.3 8.5 64 219 2.5 5.3 1012 0.0000 0.0000
21:46 15.1 8.6 65 222 1.7 2.8 1012.2 0.0000 0.0000
21:56 14.8 9 68 234 1.7 2.5 1012.4 0.0000 0.0000
22:07 14.4 8.8 69 225 1.1 1.7 1012.4 0.0000 0.0000
22:17 14.2 9 71 230 1.4 2.8 1012.5 0.0000 0.0000
22:26 13.8 8.8 72 228 1.4 2.5 1012.5 0.0000 0.0000
22:37 13.7 9.2 74 225 1.7 2.5 1012.6 0.0000 0.0000
22:47 13.6 9.1 74 227 1.1 1.7 1012.7 0.0000 0.0000
22:57 13.3 9.2 76 229 0.8 1.4 1012.8 0.0000 0.0000
23:17 13 9.4 79 227 0.6 1.1 1012.9 0.0000 0.0000
23:27 13.1 9.7 80 216 0.6 1.1 1012.9 0.0000 0.0000
23:37 12.9 9.7 81 225 0.6 1.1 1013 0.0000 0.0000
23:47 12.9 9.7 81 225 0.8 1.4 1013 0.0000 0.0000
23:57 12.8 9.8 82 225 1.1 1.7 1013 0.0000

DAY STATISTIC

2020-04-05
TEMPERATURE
AVERAGE
13.9
HIGH
17.8
16:44
LOW
10.1
08:00
PRESSURE
AVERAGE
1011.4
HIGH
1013.0
23:37
LOW
1009.9
18:24
DEWPOINT
AVERAGE
7.5
HIGH
9.8
23:57
LOW
5.7
08:00
HUMIDITY
AVERAGE
66
HIGH
82
23:57
LOW
56
15:23
WIND SPEED
AVERAGE
2.8
HIGH
5.0
07:00
WIND GUST
AVERAGE
5.1
HIGH
10.3
09:41
WIND DIRECTION
PREVAILING
SW
95.7%
N
0.7
NE
0.0
E
0.7
SE
0.7
S
0.7
SW
95.7
W
0.7
NW
0.7
PRECIPITATION
RAIN HOUR
0.0
RAIN DAY
0.0
TEMPERATURE (°C)
LOW
10.1
HIGH
17.8
AVERAGE
13.9
PRESSURE (hpa)
LOW
1009.9
HIGH
1013.0
AVERAGE
1011.4
DEVICE